datetime,delta storage
1915-03-22,1153.0
1915-03-23,1538.0
1915-03-24,1153.0
1915-03-25,1536.0
1915-03-26,960.0
1915-03-27,192.0
1915-03-28,266.0
1915-03-29,118.0
1915-03-30,1537.0
1915-03-31,1922.0
1915-04-01,2690.0
1915-04-02,2881.0
1915-04-03,2499.0
1915-04-04,1731.0
1915-04-05,1153.0
1915-04-06,1144.0
1915-04-07,971.0
1915-04-08,2499.0
1915-04-09,4417.0
1915-04-10,4115.0
1915-04-11,6338.0
1915-04-12,8548.0
1915-04-13,-1051.0
1915-04-14,7660.0
1915-04-15,3860.0
1915-04-16,5515.0
1915-04-17,6337.0
1915-04-18,6888.0
1915-04-19,17565.0
1915-04-20,18065.0
1915-04-21,17725.0
1915-04-22,12612.0
1915-04-23,9543.0
1915-04-24,11895.0
1915-04-25,10617.0
1915-04-26,9339.0
1915-04-27,7217.0
1915-04-28,5947.0
1915-04-29,5944.0
1915-04-30,3821.0
1915-05-01,5521.0
1915-05-02,11039.0
1915-05-03,10190.0
1915-05-04,12489.0
1915-05-05,9315.0
1915-05-06,8440.0
1915-05-07,7501.0
1915-05-08,6087.0
1915-05-09,3756.0
1915-05-10,1411.0
1915-05-11,4687.0
1915-05-12,2814.0
1915-05-13,1871.0
1915-05-14,1874.0
1915-05-15,3088.0
1915-05-16,5828.0
1915-05-17,7965.0
1915-05-18,9383.0
1915-05-19,10309.0
1915-05-20,14362.0
1915-05-21,11722.0
1915-05-22,12280.0
1915-05-23,10048.0
1915-05-24,6696.0
1915-05-25,4468.0
1915-05-26,558.0
1915-05-27,2232.0
1915-05-28,1679.0
1915-05-29,2227.0
1915-05-30,1678.0
1915-05-31,2232.0
1915-06-01,1674.0
1915-06-02,2232.0
1915-06-03,8932.0
1915-06-04,3348.0
1915-06-05,3906.0
1915-06-06,5584.0
1915-06-07,3348.0
1915-06-08,3910.0
1915-06-09,2232.0
1915-06-10,1734.0
1915-06-11,498.0
1915-06-12,2237.0
1915-06-13,6.0
1915-06-14,1663.0
1915-06-15,-558.0
1915-06-16,1123.0
1915-06-17,1114.0
1915-06-18,560.0
1915-06-19,1116.0
1915-06-20,-3355.0
1915-06-21,-2229.0
1915-06-22,1336.0
1915-06-23,2572.0
1915-06-24,2491.0
1915-06-25,2696.0
1915-06-26,3595.0
1915-06-27,-130.0
1915-06-28,-1154.0
1915-06-29,-1284.0
1915-06-30,-642.0
1915-07-01,-2568.0
1915-07-02,-993.0
1915-07-03,-558.0
1915-07-04,0.0
1915-07-05,-1458.0
1915-07-06,-1674.0
1915-07-07,-2009.0
1915-07-08,-2232.0
1915-07-09,-2455.0
1915-07-10,-2682.0
1915-07-11,-2790.0
1915-07-12,-2902.0
1915-07-13,-2455.0
1915-07-14,-2571.0
1915-07-15,-2790.0
1915-07-16,-2344.0
1915-07-17,-29790.0
1915-07-18,24545.0
1915-07-19,-2571.0
1915-07-20,-2567.0
1915-07-21,-1339.0
1915-07-22,-446.0
1915-07-23,-1451.0
1915-07-24,2232.0
1915-07-25,8263.0
1915-07-26,7365.0
1915-07-27,14628.0
1915-07-28,16566.0
1915-07-29,2696.0
1915-07-30,14253.0
1915-07-31,-2439.0
1915-08-01,-771.0
1915-08-02,-770.0
1915-08-03,-642.0
1915-08-04,-1284.0
1915-08-05,-2054.0
1915-08-06,-1798.0
1915-08-07,-1412.0
1915-08-08,-1029.0
1915-08-09,-3210.0
1915-08-10,-4237.0
1915-08-11,-3595.0
1915-08-12,-1228.0
1915-08-13,-1011.0
1915-08-14,-1451.0
1915-08-15,-1339.0
1915-08-16,-2455.0
1915-08-17,-2679.0
1915-08-18,-2682.0
1915-08-19,-3236.0
1915-08-20,-2902.0
1915-08-21,-3348.0
1915-08-22,-4252.0
1915-08-23,-3006.0
1915-08-24,-3033.0
1915-08-25,-670.0
1915-08-26,-2662.0
1915-08-27,-1563.0
1915-08-28,-2455.0
1915-08-29,-2902.0
1915-08-30,-3575.0
1915-08-31,-3571.0
1915-09-01,-3381.0
1915-09-02,-4100.0
1915-09-03,-3683.0
1915-09-04,-3348.0
1915-09-05,-2232.0
1915-09-06,-1339.0
1915-09-07,-2236.0
1915-09-08,-2902.0
1915-09-09,-3459.0
1915-09-10,-4580.0
1915-09-11,-2343.0
1915-09-12,-3571.0
1915-09-13,-3125.0
1915-09-14,-4124.0
1915-09-15,1116.0
1915-09-16,-4474.0
1915-09-17,-2355.0
1915-09-18,-2113.0
1915-09-19,-1786.0
1915-09-20,112.0
1915-09-21,-1339.0
1915-09-22,-3013.0
1915-09-23,-2790.0
1915-09-24,-1963.0
1915-09-25,-2251.0
1915-09-26,-2720.0
1915-09-27,-2064.0
1915-09-28,1595.0
1915-09-29,469.0
1915-09-30,-1147.0
1915-10-01,-1011.0
1915-10-02,-1685.0
1915-10-03,-1595.0
1915-10-04,-1125.0
1915-10-05,-657.0
1915-10-06,-1688.0
1915-10-07,-1314.0
1915-10-08,-1219.0
1915-10-09,-2531.0
1915-10-10,-1032.0
1915-10-11,-656.0
1915-10-12,-563.0
1915-10-13,-938.0
1915-10-14,-563.0
1915-10-15,-563.0
1915-10-16,-375.0
1915-10-17,-2750.0
1915-10-18,702.0
1915-10-19,187.0
1915-10-20,187.0
1915-10-21,187.0
1915-10-22,187.0
1915-10-23,187.0
1915-10-24,187.0
1915-10-25,187.0
1915-10-26,187.0
1915-10-27,94.0
1915-10-28,0.0
1915-10-29,0.0
1915-10-30,0.0
1915-10-31,94.0
1915-11-01,923.0
1915-11-02,-829.0
1915-11-03,94.0
1915-11-04,281.0
1915-11-05,281.0
1915-11-06,281.0
1915-11-07,187.0
1915-11-08,187.0
1915-11-09,656.0
1915-11-10,94.0
1915-11-11,375.0
1915-11-12,281.0
1915-11-13,94.0
1915-11-14,187.0
1915-11-15,187.0
1915-11-16,281.0
1915-11-17,187.0
1915-11-18,187.0
1915-11-19,187.0
1915-11-20,468.0
1915-11-21,1028.0
1915-11-22,1780.0
1915-11-23,469.0
1915-11-24,376.0
1915-11-25,-845.0
1915-11-26,-2343.0
1915-11-27,-1313.0
1915-11-28,-1220.0
1915-11-29,-750.0
1915-11-30,-1219.0
1915-12-01,-562.0
1915-12-02,-562.0
1915-12-03,-1405.0
1915-12-04,-1323.0
1915-12-05,-1218.0
1915-12-06,-844.0
1915-12-07,-375.0
1915-12-08,375.0
1915-12-09,1687.0
1915-12-10,1038.0
1915-12-11,1124.0
1915-12-12,656.0
1915-12-13,281.0
1915-12-14,562.0
1915-12-15,-469.0
1915-12-16,937.0
1915-12-17,563.0
1915-12-18,-656.0
1915-12-19,94.0
1915-12-20,0.0
1915-12-21,94.0
1915-12-22,187.0
1915-12-23,281.0
1915-12-24,281.0
1915-12-25,281.0
1915-12-26,188.0
1915-12-27,187.0
1915-12-28,750.0
1915-12-29,281.0
1915-12-30,281.0
1915-12-31,375.0
1916-01-01,-3144.0
1916-01-02,281.0
1916-01-03,281.0
1916-01-04,1876.0
1916-01-05,1406.0
1916-01-06,844.0
1916-01-07,844.0
1916-01-08,844.0
1916-01-09,1126.0
1916-01-10,844.0
1916-01-11,1032.0
1916-01-12,563.0
1916-01-13,1125.0
1916-01-14,654.0
1916-01-15,1032.0
1916-01-16,1125.0
1916-01-17,1407.0
1916-01-18,751.0
1916-01-19,1501.0
1916-01-20,1219.0
1916-01-21,3722.0
1916-01-22,3125.0
1916-01-23,2679.0
1916-01-24,4017.0
1916-01-25,2237.0
1916-01-26,1785.0
1916-01-27,1339.0
1916-01-28,1116.0
1916-01-29,1339.0
1916-01-30,1228.0
1916-01-31,1339.0
1916-02-01,2459.0
1916-02-02,893.0
1916-02-03,0.0
1916-02-04,10112.0
1916-02-05,-10112.0
1916-02-06,-335.0
1916-02-07,-335.0
1916-02-08,1116.0
1916-02-09,670.0
1916-02-10,0.0
1916-02-11,-1116.0
1916-02-12,-1004.0
1916-02-13,-558.0
1916-02-14,-670.0
1916-02-15,-223.0
1916-02-16,-446.0
1916-02-17,-670.0
1916-02-18,223.0
1916-02-19,-223.0
1916-02-20,-223.0
1916-02-21,1558.0
1916-02-22,223.0
1916-02-23,446.0
1916-02-24,446.0
1916-02-25,446.0
1916-02-26,1451.0
1916-02-27,335.0
1916-02-28,112.0
1916-02-29,-250.0
1916-03-01,-192.0
1916-03-02,-670.0
1916-03-03,223.0
1916-03-04,1452.0
1916-03-05,558.0
1916-03-06,1228.0
1916-03-07,893.0
1916-03-08,670.0
1916-03-09,-781.0
1916-03-10,-335.0
1916-03-11,1339.0
1916-03-12,222.0
1916-03-13,0.0
1916-03-14,558.0
1916-03-15,112.0
1916-03-16,2682.0
1916-03-17,2790.0
1916-03-18,3460.0
1916-03-19,3013.0
1916-03-20,2459.0
1916-03-21,2790.0
1916-03-22,4576.0
1916-03-23,3906.0
1916-03-24,7700.0
1916-03-25,9486.0
1916-03-26,10044.0
1916-03-27,8275.0
1916-03-28,10156.0
1916-03-29,-1897.0
1916-03-30,2232.0
1916-03-31,2344.0
1916-04-01,5803.0
1916-04-02,6664.0
1916-04-03,3723.0
1916-04-04,7567.0
1916-04-05,5146.0
1916-04-06,2696.0
1916-04-07,6036.0
1916-04-08,6677.0
1916-04-09,7191.0
1916-04-10,2568.0
1916-04-11,2696.0
1916-04-12,2441.0
1916-04-13,2825.0
1916-04-14,1541.0
1916-04-15,1798.0
1916-04-16,2054.0
1916-04-17,1925.0
1916-04-18,2313.0
1916-04-19,1798.0
1916-04-20,3082.0
1916-04-21,3466.0
1916-04-22,4880.0
1916-04-23,2953.0
1916-04-24,2055.0
1916-04-25,899.0
1916-04-26,2183.0
1916-04-27,3467.0
1916-04-28,4109.0
1916-04-29,5136.0
1916-04-30,5136.0
1916-05-01,11815.0
1916-05-02,11303.0
1916-05-03,16142.0
1916-05-04,11419.0
1916-05-05,10012.0
1916-05-06,6882.0
1916-05-07,9385.0
1916-05-08,9699.0
1916-05-09,11730.0
1916-05-10,13140.0
1916-05-11,13452.0
1916-05-12,13609.0
1916-05-13,14234.0
1916-05-14,13453.0
1916-05-15,21597.0
1916-05-16,20627.0
1916-05-17,19922.0
1916-05-18,17454.0
1916-05-19,12341.0
1916-05-20,8110.0
1916-05-21,7052.0
1916-05-22,4007.0
1916-05-23,4984.0
1916-05-24,3526.0
1916-05-25,705.0
1916-05-26,1939.0
1916-05-27,881.0
1916-05-28,705.0
1916-05-29,5642.0
1916-05-30,3939.0
1916-05-31,-590.0
1916-06-01,1235.0
1916-06-02,529.0
1916-06-03,530.0
1916-06-04,176.0
1916-06-05,-705.0
1916-06-06,-529.0
1916-06-07,-353.0
1916-06-08,-1058.0
1916-06-09,-882.0
1916-06-10,-705.0
1916-06-11,-1587.0
1916-06-12,-2116.0
1916-06-13,-1410.0
1916-06-14,-1763.0
1916-06-15,1411.0
1916-06-16,1234.0
1916-06-17,1763.0
1916-06-18,1058.0
1916-06-19,881.0
1916-06-20,353.0
1916-06-21,529.0
1916-06-22,0.0
1916-06-23,529.0
1916-06-24,-176.0
1916-06-25,-353.0
1916-06-26,-882.0
1916-06-27,-1410.0
1916-06-28,-1939.0
1916-06-29,-2292.0
1916-06-30,-2645.0
1916-07-01,-4702.0
1916-07-02,-4231.0
1916-07-03,-4231.0
1916-07-04,-4231.0
1916-07-05,-4231.0
1916-07-06,-4936.0
1916-07-07,-5113.0
1916-07-08,-2703.0
1916-07-09,-3173.0
1916-07-10,-3173.0
1916-07-11,-3173.0
1916-07-12,-3173.0
1916-07-13,-3250.0
1916-07-14,-3273.0
1916-07-15,-2999.0
1916-07-16,-2997.0
1916-07-17,-2292.0
1916-07-18,-529.0
1916-07-19,-1763.0
1916-07-20,-4763.0
1916-07-21,1237.0
1916-07-22,-1234.0
1916-07-23,-2292.0
1916-07-24,-2115.0
1916-07-25,-2645.0
1916-07-26,-2821.0
1916-07-27,-2644.0
1916-07-28,-2468.0
1916-07-29,-2468.0
1916-07-30,-1410.0
1916-07-31,-1410.0
1916-08-01,-354.0
1916-08-02,2116.0
1916-08-03,3526.0
1916-08-04,-705.0
1916-08-05,-705.0
1916-08-06,0.0
1916-08-07,-705.0
1916-08-08,-705.0
1916-08-09,1586.0
1916-08-10,881.0
1916-08-11,882.0
1916-08-12,-1763.0
1916-08-13,0.0
1916-08-14,0.0
1916-08-15,1234.0
1916-08-16,-353.0
1916-08-17,1058.0
1916-08-18,1939.0
1916-08-19,2116.0
1916-08-20,
1916-08-21,
1916-08-22,1410.0
1916-08-23,0.0
1916-08-24,5818.0
1916-08-25,-4936.0
1916-08-26,353.0
1916-08-27,-881.0
1916-08-28,-1705.0
1916-08-29,1351.0
1916-08-30,-1410.0
1916-08-31,-1410.0
1916-09-01,-2997.0
1916-09-02,705.0
1916-09-03,-1058.0
1916-09-04,-882.0
1916-09-05,-1058.0
1916-09-06,-1410.0
1916-09-07,-705.0
1916-09-08,-1587.0
1916-09-09,-1410.0
1916-09-10,-1939.0
1916-09-11,-1763.0
1916-09-12,-2116.0
1916-09-13,-1587.0
1916-09-14,-6410.0
1916-09-15,2884.0
1916-09-16,-2292.0
1916-09-17,-116.0
1916-09-18,-3939.0
1916-09-19,-1743.0
1916-09-20,-2312.0
1916-09-21,-1564.0
1916-09-22,-2425.0
1916-09-23,-1564.0
1916-09-24,-1251.0
1916-09-25,-2659.0
1916-09-26,-2972.0
1916-09-27,-2659.0
1916-09-28,-1877.0
1916-09-29,-3284.0
1916-09-30,-2659.0
1916-10-01,-2504.0
1916-10-02,-2659.0
1916-10-03,-3597.0
1916-10-04,-3324.0
1916-10-05,-2033.0
1916-10-06,-2659.0
1916-10-07,-2033.0
1916-10-08,-938.0
1916-10-09,-1095.0
1916-10-10,-5005.0
1916-10-11,-782.0
1916-10-12,1251.0
1916-10-13,1877.0
1916-10-14,9228.0
1916-10-15,
1916-10-16,
1916-10-17,17982.0
1916-10-18,11460.0
1916-10-19,8639.0
1916-10-20,5641.0
1916-10-21,8286.0
1916-10-22,
1916-10-23,
1916-10-24,3879.0
1916-10-25,4936.0
1916-10-26,4584.0
1916-10-27,4055.0
1916-10-28,4055.0
1916-10-29,
1916-10-30,
1916-10-31,3879.0
1916-11-01,2643.0
1916-11-02,5113.0
1916-11-03,3350.0
1916-11-04,2645.0
1916-11-05,
1916-11-06,
1916-11-07,3526.0
1916-11-08,1763.0
1916-11-09,2644.0
1916-11-10,1939.0
1916-11-11,2116.0
1916-11-12,
1916-11-13,
1916-11-14,2292.0
1916-11-15,1410.0
1916-11-16,1939.0
1916-11-17,2116.0
1916-11-18,1763.0
1916-11-19,
1916-11-20,
1916-11-21,5818.0
1916-11-22,529.0
1916-11-23,1410.0
1916-11-24,21763.0
1916-11-25,-17531.0
1916-11-26,
1916-11-27,
1916-11-28,-1411.0
1916-11-29,0.0
1916-11-30,-705.0
1916-12-01,-881.0
1916-12-02,-1940.0
1916-12-03,
1916-12-04,
1916-12-05,-1058.0
1916-12-06,-4231.0
1916-12-07,-2641.0
1916-12-08,-5292.0
1916-12-09,-2116.0
1916-12-10,
1916-12-11,
1916-12-12,-3556.0
1916-12-13,-1764.0
1916-12-14,-2115.0
1916-12-15,-3350.0
1916-12-16,-2997.0
1916-12-17,
1916-12-18,
1916-12-19,-2468.0
1916-12-20,-3350.0
1916-12-21,-2116.0
1916-12-22,-2292.0
1916-12-23,-7115.0
1916-12-24,
1916-12-25,
1916-12-26,-2644.0
1916-12-27,176.0
1916-12-28,881.0
1916-12-29,0.0
1916-12-30,
1916-12-31,
1917-01-01,-4231.0
1917-01-02,-4408.0
1917-01-03,-5299.0
1917-01-04,-4926.0
1917-01-05,-1058.0
1917-01-06,-2115.0
1917-01-07,
1917-01-08,
1917-01-09,-3166.0
1917-01-10,-3005.0
1917-01-11,-1763.0
1917-01-12,-1763.0
1917-01-13,-1587.0
1917-01-14,
1917-01-15,
1917-01-16,-1058.0
1917-01-17,-2468.0
1917-01-18,-2292.0
1917-01-19,-2116.0
1917-01-20,882.0
1917-01-21,
1917-01-22,
1917-01-23,1763.0
1917-01-24,1763.0
1917-01-25,1763.0
1917-01-26,353.0
1917-01-27,705.0
1917-01-28,-342.0
1917-01-29,-1421.0
1917-01-30,-2821.0
1917-01-31,-1929.0
1917-02-01,-2831.0
1917-02-02,-2821.0
1917-02-03,-3173.0
1917-02-04,-2821.0
1917-02-05,-2821.0
1917-02-06,-2468.0
1917-02-07,-1939.0
1917-02-08,-3350.0
1917-02-09,-3350.0
1917-02-10,-2115.0
1917-02-11,
1917-02-12,
1917-02-13,-2291.0
1917-02-14,-2821.0
1917-02-15,-2645.0
1917-02-16,-2468.0
1917-02-17,-2016.0
1917-02-18,
1917-02-19,
1917-02-20,-1721.0
1917-02-21,-2190.0
1917-02-22,-2190.0
1917-02-23,-2189.0
1917-02-24,
1917-02-25,
1917-02-26,
1917-02-27,-2346.0
1917-02-28,-2503.0
1917-03-01,67.0
1917-03-02,-4916.0
1917-03-03,-1095.0
1917-03-04,
1917-03-05,
1917-03-06,-1565.0
1917-03-07,-1877.0
1917-03-08,-1877.0
1917-03-09,-2972.0
1917-03-10,-3284.0
1917-03-11,
1917-03-12,
1917-03-13,-3128.0
1917-03-14,-2659.0
1917-03-15,-2972.0
1917-03-16,-3128.0
1917-03-17,-1095.0
1917-03-18,
1917-03-19,
1917-03-20,13296.0
1917-03-21,-17988.0
1917-03-22,-18145.0
1917-03-23,12827.0
1917-03-24,-2972.0
1917-03-25,
1917-03-26,
1917-03-27,-1877.0
1917-03-28,-1877.0
1917-03-29,-2033.0
1917-03-30,-2972.0
1917-03-31,-2493.0
1917-04-01,-4233.0
1917-04-02,-2816.0
1917-04-03,-626.0
1917-04-04,626.0
1917-04-05,313.0
1917-04-06,-1564.0
1917-04-07,-939.0
1917-04-08,
1917-04-09,
1917-04-10,-2347.0
1917-04-11,-2033.0
1917-04-12,-1564.0
1917-04-13,-939.0
1917-04-14,-313.0
1917-04-15,
1917-04-16,
1917-04-17,-2347.0
1917-04-18,313.0
1917-04-19,313.0
1917-04-20,1095.0
1917-04-21,782.0
1917-04-22,
1917-04-23,
1917-04-24,-1251.0
1917-04-25,-1095.0
1917-04-26,-2346.0
1917-04-27,-3129.0
1917-04-28,-312.0
1917-04-29,
1917-04-30,
1917-05-01,6239.0
1917-05-02,4536.0
1917-05-03,2817.0
1917-05-04,468.0
1917-05-05,-626.0
1917-05-06,
1917-05-07,
1917-05-08,-1564.0
1917-05-09,0.0
1917-05-10,-939.0
1917-05-11,-313.0
1917-05-12,-156.0
1917-05-13,
1917-05-14,
1917-05-15,-782.0
1917-05-16,-1565.0
1917-05-17,-1095.0
1917-05-18,313.0
1917-05-19,5006.0
1917-05-20,
1917-05-21,
1917-05-22,14547.0
1917-05-23,14078.0
1917-05-24,10636.0
1917-05-25,8916.0
1917-05-26,7352.0
1917-05-27,
1917-05-28,
1917-05-29,6257.0
1917-05-30,3754.0
1917-05-31,3128.0
1917-06-01,2503.0
1917-06-02,2346.0
1917-06-03,
1917-06-04,
1917-06-05,4055.0
1917-06-06,2820.0
1917-06-07,2645.0
1917-06-08,4760.0
1917-06-09,5642.0
1917-06-10,
1917-06-11,
1917-06-12,5466.0
1917-06-13,7404.0
1917-06-14,8815.0
1917-06-15,9344.0
1917-06-16,9873.0
1917-06-17,
1917-06-18,
1917-06-19,11636.0
1917-06-20,10578.0
1917-06-21,10578.0
1917-06-22,11106.0
1917-06-23,10226.0
1917-06-24,
1917-06-25,
1917-06-26,8441.0
1917-06-27,10087.0
1917-06-28,9037.0
1917-06-29,7775.0
1917-06-30,6304.0
1917-07-01,5990.0
1917-07-02,5989.0
1917-07-03,5674.0
1917-07-04,
1917-07-05,
1917-07-06,4203.0
1917-07-07,3363.0
1917-07-08,
1917-07-09,
1917-07-10,
1917-07-11,
1917-07-12,210.0
1917-07-13,-840.0
1917-07-14,-420.0
1917-07-15,
1917-07-16,
1917-07-17,-2311.0
1917-07-18,-1051.0
1917-07-19,-1471.0
1917-07-20,-3152.0
1917-07-21,-3993.0
1917-07-22,
1917-07-23,
1917-07-24,-4623.0
1917-07-25,-4833.0
1917-07-26,-5254.0
1917-07-27,-5254.0
1917-07-28,-4833.0
1917-07-29,-7085.0
1917-07-30,-4473.0
1917-07-31,-5884.0
1917-08-01,-4643.0
1917-08-02,-6706.0
1917-08-03,-7016.0
1917-08-04,-5289.0
1917-08-05,-5989.0
1917-08-06,-1592.0
1917-08-07,-3526.0
1917-08-08,-3878.0
1917-08-09,-3879.0
1917-08-10,-4231.0
1917-08-11,-3879.0
1917-08-12,-4015.0
1917-08-13,-4800.0
1917-08-14,-3878.0
1917-08-15,-4055.0
1917-08-16,-4232.0
1917-08-17,-3526.0
1917-08-18,-4055.0
1917-08-19,
1917-08-20,
1917-08-21,-1763.0
1917-08-22,-176.0
1917-08-23,-355.0
1917-08-24,-703.0
1917-08-25,-3526.0
1917-08-26,
1917-08-27,
1917-08-28,-4408.0
1917-08-29,-4408.0
1917-08-30,-4936.0
1917-08-31,-4402.0
1917-09-01,-4589.0
1917-09-02,
1917-09-03,
1917-09-04,-4055.0
1917-09-05,-4055.0
1917-09-06,-4408.0
1917-09-07,-4760.0
1917-09-08,-3526.0
1917-09-09,
1917-09-10,
1917-09-11,-14407.0
1917-09-12,-4055.0
1917-09-13,-3878.0
1917-09-14,-4761.0
1917-09-15,-3878.0
1917-09-16,
1917-09-17,
1917-09-18,-2116.0
1917-09-19,-1723.0
1917-09-20,-3128.0
1917-09-21,-3598.0
1917-09-22,-2815.0
1917-09-23,
1917-09-24,
1917-09-25,-3754.0
1917-09-26,-3754.0
1917-09-27,-4067.0
1917-09-28,-3754.0
1917-09-29,-4379.0
1917-09-30,-4067.0
1917-10-01,-4067.0
1917-10-02,-3598.0
1917-10-03,-4379.0
1917-10-04,-3911.0
1917-10-05,-3910.0
1917-10-06,-4380.0
1917-10-07,
1917-10-08,
1917-10-09,-4693.0
1917-10-10,-3285.0
1917-10-11,-4536.0
1917-10-12,-3910.0
1917-10-13,-4380.0
1917-10-14,
1917-10-15,
1917-10-16,-4067.0
1917-10-17,-4536.0
1917-10-18,-4067.0
1917-10-19,-4693.0
1917-10-20,-4067.0
1917-10-21,
1917-10-22,
1917-10-23,-4849.0
1917-10-24,-4223.0
1917-10-25,-3598.0
1917-10-26,-4223.0
1917-10-27,-4380.0
1917-10-28,
1917-10-29,
1917-10-30,-3724.0
1917-10-31,-3082.0
1917-11-01,-2055.0
1917-11-02,-513.0
1917-11-03,128.0
1917-11-04,
1917-11-05,
1917-11-06,128.0
1917-11-07,-128.0
1917-11-08,-386.0
1917-11-09,0.0
1917-11-10,257.0
1917-11-11,
1917-11-12,
1917-11-13,771.0
1917-11-14,-129.0
1917-11-15,386.0
1917-11-16,-1028.0
1917-11-17,-3082.0
1917-11-18,
1917-11-19,
1917-11-20,-8347.0
1917-11-21,-514.0
1917-11-22,-642.0
1917-11-23,-2825.0
1917-11-24,-3082.0
1917-11-25,
1917-11-26,
1917-11-27,-2825.0
1917-11-28,-2953.0
1917-11-29,-2954.0
1917-11-30,-3082.0
1917-12-01,-2568.0
1917-12-02,
1917-12-03,
1917-12-04,-2696.0
1917-12-05,-3082.0
1917-12-06,-2954.0
1917-12-07,-2825.0
1917-12-08,-3338.0
1917-12-09,
1917-12-10,
1917-12-11,-2825.0
1917-12-12,-2953.0
1917-12-13,-2569.0
1917-12-14,-2825.0
1917-12-15,-3595.0
1917-12-16,
1917-12-17,
1917-12-18,-1156.0
1917-12-19,3852.0
1917-12-20,1284.0
1917-12-21,642.0
1917-12-22,1156.0
1917-12-23,
1917-12-24,
1917-12-25,2055.0
1917-12-26,257.0
1917-12-27,1027.0
1917-12-28,514.0
1917-12-29,1284.0
1917-12-30,
1917-12-31,
1918-01-01,1412.0
1918-01-02,742.0
1918-01-03,1056.0
1918-01-04,1284.0
1918-01-05,1156.0
1918-01-06,
1918-01-07,
1918-01-08,899.0
1918-01-09,1156.0
1918-01-10,898.0
1918-01-11,1285.0
1918-01-12,0.0
1918-01-13,
1918-01-14,
1918-01-15,1926.0
1918-01-16,256.0
1918-01-17,386.0
1918-01-18,1027.0
1918-01-19,
1918-01-20,
1918-01-21,
1918-01-22,642.0
1918-01-23,642.0
1918-01-24,0.0
1918-01-25,0.0
1918-01-26,514.0
1918-01-27,
1918-01-28,
1918-01-29,514.0
1918-01-30,2825.0
1918-01-31,1413.0
1918-02-01,1412.0
1918-02-02,771.0
1918-02-03,770.0
1918-02-04,899.0
1918-02-05,770.0
1918-02-06,1156.0
1918-02-07,1027.0
1918-02-08,386.0
1918-02-09,513.0
1918-02-10,642.0
1918-02-11,642.0
1918-02-12,514.0
1918-02-13,513.0
1918-02-14,1413.0
1918-02-15,642.0
1918-02-16,-2696.0
1918-02-17,-2825.0
1918-02-18,-2826.0
1918-02-19,-4109.0
1918-02-20,-3724.0
1918-02-21,-2825.0
1918-02-22,-1284.0
1918-02-23,-1284.0
1918-02-24,-5137.0
1918-02-25,-5007.0
1918-02-26,-3596.0
1918-02-27,-2825.0
1918-02-28,-3339.0
1918-03-01,-3210.0
1918-03-02,-3596.0
1918-03-03,-1156.0
1918-03-04,-1027.0
1918-03-05,-1798.0
1918-03-06,-1669.0
1918-03-07,-2312.0
1918-03-08,-2321.0
1918-03-09,-2815.0
1918-03-10,-1156.0
1918-03-11,-1156.0
1918-03-12,-256.0
1918-03-13,1926.0
1918-03-14,1541.0
1918-03-15,385.0
1918-03-16,-770.0
1918-03-17,-514.0
1918-03-18,-514.0
1918-03-19,514.0
1918-03-20,-257.0
1918-03-21,-899.0
1918-03-22,1798.0
1918-03-23,-3467.0
1918-03-24,-512.0
1918-03-25,-515.0
1918-03-26,-1028.0
1918-03-27,-770.0
1918-03-28,-1284.0
1918-03-29,-129.0
1918-03-30,-1669.0
1918-03-31,-514.0
1918-04-01,-1669.0
1918-04-02,-1670.0
1918-04-03,-898.0
1918-04-04,-2055.0
1918-04-05,-1413.0
1918-04-06,-256.0
1918-04-07,-1541.0
1918-04-08,-1407.0
1918-04-09,-3573.0
1918-04-10,-446.0
1918-04-11,-1563.0
1918-04-12,-3573.0
1918-04-13,-2232.0
1918-04-14,-1117.0
1918-04-15,-1116.0
1918-04-16,-4131.0
1918-04-17,-1005.0
1918-04-18,-2680.0
1918-04-19,-1897.0
1918-04-20,-1452.0
1918-04-21,-2121.0
1918-04-22,-2121.0
1918-04-23,-1005.0
1918-04-24,-893.0
1918-04-25,-1675.0
1918-04-26,-2233.0
1918-04-27,-2902.0
1918-04-28,-2680.0
1918-04-29,-2679.0
1918-04-30,-2903.0
1918-05-01,2121.0
1918-05-02,-7703.0
1918-05-03,-2010.0
1918-05-04,-1340.0
1918-05-05,224.0
1918-05-06,223.0
1918-05-07,-1563.0
1918-05-08,3126.0
1918-05-09,-2010.0
1918-05-10,3685.0
1918-05-11,1898.0
1918-05-12,2791.0
1918-05-13,2791.0
1918-05-14,3572.0
1918-05-15,3126.0
1918-05-16,1452.0
1918-05-17,223.0
1918-05-18,0.0
1918-05-19,893.0
1918-05-20,791.0
1918-05-21,3005.0
1918-05-22,-781.0
1918-05-23,1116.0
1918-05-24,0.0
1918-05-25,558.0
1918-05-26,-335.0
1918-05-27,-223.0
1918-05-28,-1116.0
1918-05-29,558.0
1918-05-30,-558.0
1918-05-31,-1117.0
1918-06-01,0.0
1918-06-02,
1918-06-03,
1918-06-04,
1918-06-05,-2233.0
1918-06-06,-1674.0
1918-06-07,-1675.0
1918-06-08,-1675.0
1918-06-09,
1918-06-10,
1918-06-11,-1675.0
1918-06-12,-558.0
1918-06-13,-559.0
1918-06-14,0.0
1918-06-15,-558.0
1918-06-16,
1918-06-17,
1918-06-18,0.0
1918-06-19,5940.0
1918-06-20,
1918-06-21,
1918-06-22,-1117.0
1918-06-23,
1918-06-24,
1918-06-25,-1117.0
1918-06-26,-1116.0
1918-06-27,-1117.0
1918-06-28,-1116.0
1918-06-29,-1116.0
1918-06-30,-2233.0
1918-07-01,-2233.0
1918-07-02,-2233.0
1918-07-03,
1918-07-04,
1918-07-05,-3359.0
1918-07-06,-2223.0
1918-07-07,-5583.0
1918-07-08,
1918-07-09,
1918-07-10,-1674.0
1918-07-11,-1117.0
1918-07-12,-2233.0
1918-07-13,-2791.0
1918-07-14,
1918-07-15,
1918-07-16,-2791.0
1918-07-17,-2791.0
1918-07-18,-3171.0
1918-07-19,-2813.0
1918-07-20,-2813.0
1918-07-21,-3282.0
1918-07-22,-3283.0
1918-07-23,-2344.0
1918-07-24,-2344.0
1918-07-25,-2814.0
1918-07-26,-1875.0
1918-07-27,-938.0
1918-07-28,
1918-07-29,
1918-07-30,-2344.0
1918-07-31,-2345.0
1918-08-01,-2344.0
1918-08-02,
1918-08-03,
1918-08-04,
1918-08-05,
1918-08-06,937.0
1918-08-07,-2344.0
1918-08-08,
1918-08-09,
1918-08-10,-2814.0
1918-08-11,
1918-08-12,
1918-08-13,
1918-08-14,
1918-08-15,-2813.0
1918-08-16,-938.0
1918-08-17,-938.0
1918-08-18,-468.0
1918-08-19,-470.0
1918-08-20,-812.0
1918-08-21,-1800.0
1918-08-22,-2076.0
1918-08-23,-2813.0
1918-08-24,-2813.0
1918-08-25,-2342.0
1918-08-26,-2347.0
1918-08-27,-1876.0
1918-08-28,
1918-08-29,
1918-08-30,
1918-08-31,
1918-09-01,-2548.0
1918-09-02,-1698.0
1918-09-03,-2547.0
1918-09-04,1698.0
1918-09-05,-5943.0
1918-09-06,-2547.0
1918-09-07,-2547.0
1918-09-08,
1918-09-09,
1918-09-10,-2549.0
1918-09-11,-547.0
1918-09-12,-4527.0
1918-09-13,-4265.0
1918-09-14,-3397.0
1918-09-15,
1918-09-16,
1918-09-17,-2547.0
1918-09-18,-3396.0
1918-09-19,-4246.0
1918-09-20,-3396.0
1918-09-21,-4245.0
1918-09-22,
1918-09-23,
1918-09-24,0.0
1918-09-25,0.0
1918-09-26,0.0
1918-09-27,-2547.0
1918-09-28,-4245.0
1918-09-29,
1918-09-30,
1918-10-01,-869.0
1918-10-02,-3062.0
1918-10-03,-2045.0
1918-10-04,-2046.0
1918-10-05,-1368.0
1918-10-06,
1918-10-07,
1918-10-08,-1364.0
1918-10-09,-2045.0
1918-10-10,-2727.0
1918-10-11,-1364.0
1918-10-12,-1364.0
1918-10-13,
1918-10-14,
1918-10-15,-1364.0
1918-10-16,-2045.0
1918-10-17,-3409.0
1918-10-18,-682.0
1918-10-19,3409.0
1918-10-20,2046.0
1918-10-21,1363.0
1918-10-22,982.0
1918-10-23,382.0
1918-10-24,2727.0
1918-10-25,2728.0
1918-10-26,682.0
1918-10-27,0.0
1918-10-28,1363.0
1918-10-29,682.0
1918-10-30,682.0
1918-10-31,1364.0
1918-11-01,682.0
1918-11-02,-1364.0
1918-11-03,-2046.0
1918-11-04,-1363.0
1918-11-05,0.0
1918-11-06,-682.0
1918-11-07,-2046.0
1918-11-08,-2727.0
1918-11-09,-2046.0
1918-11-10,-682.0
1918-11-11,-681.0
1918-11-12,-682.0
1918-11-13,682.0
1918-11-14,0.0
1918-11-15,-2046.0
1918-11-16,2046.0
1918-11-17,0.0
1918-11-18,0.0
1918-11-19,681.0
1918-11-20,1364.0
1918-11-21,682.0
1918-11-22,682.0
1918-11-23,2045.0
1918-11-24,682.0
1918-11-25,1364.0
1918-11-26,0.0
1918-11-27,0.0
1918-11-28,1364.0
1918-11-29,0.0
1918-11-30,681.0
1918-12-01,682.0
1918-12-02,2046.0
1918-12-03,682.0
1918-12-04,682.0
1918-12-05,681.0
1918-12-06,682.0
1918-12-07,682.0
1918-12-08,1364.0
1918-12-09,2045.0
1918-12-10,682.0
1918-12-11,682.0
1918-12-12,682.0
1918-12-13,1364.0
1918-12-14,1363.0
1918-12-15,3062.0
1918-12-16,1698.0
1918-12-17,1698.0
1918-12-18,1898.0
1918-12-19,649.0
1918-12-20,850.0
1918-12-21,849.0
1918-12-22,2551.0
1918-12-23,1694.0
1918-12-24,0.0